Miscellaneous Local Product
Issued by NWS Hastings, NE

Home | Current Version | Previous Version | Graphics & Text | Print | Product List | Glossary On
Versions: 1 2 3 4 5 6 7 8 9 10 11 12 13 14 15 16 17 18 19 20 21 22 23 24 25 26 27 28 29 30 31 32 33 34 35 36 37 38 39 40 41 42 43 44 45 46 47 48 49 50
000
AXUS43 KGID 251402
MISGRI

GID CWA HOURLY WEATHER ROUNDUP
NATIONAL WEATHER SERVICE HASTINGS NE
800 AM CST SUN JAN 25 2015

NOTE: "FAIR" INDICATES FEW OR NO CLOUDS BELOW 12,000 FEET WITH NO
SIGNIFICANT WEATHER AND/OR OBSTRUCTIONS TO VISIBILITY.

...SOUTH CENTRAL NEBRASKA...

CITY           SKY/WX    TMP DP  RH WIND       PRES   REMARKS
GRAND ISLAND   CLOUDY    39  32  76 N22G36    29.93R WCI  29
HASTINGS       CLOUDY    39  29  67 N28G35    29.91R WCI  28
KEARNEY        CLEAR     36  27  69 NW16      29.96R WCI  26
ORD            CLOUDY    38  30  73 N18G25    29.94R WCI  28
YORK           CLOUDY    36  32  87 N15G23    29.89R WCI  26
AURORA         CLOUDY    37  33  82 N22G29    29.91R WCI  27
LEXINGTON      PTCLDY    35  29  76 NW14      29.99S WCI  26
HOLDREGE       CLEAR     37  27  68 NW16G26   29.97R WCI  27
HEBRON         CLOUDY    40  32  71 N20G29    29.88R WCI  31

...NEBRASKA PANHANDLE...

CITY           SKY/WX    TMP DP  RH WIND       PRES   REMARKS
CHADRON        CLEAR     36  28  73 W16       30.08R WCI  26
ALLIANCE       CLEAR     31  26  82 W12       30.06R WCI  22
SCOTTSBLUFF    PTCLDY    32  27  81 NW9       30.11S WCI  24
SIDNEY         CLEAR     32  25  75 W13       30.09S WCI  22

...WESTERN AND NORTH CENTRAL NEBRASKA...

CITY           SKY/WX    TMP DP  RH WIND       PRES   REMARKS
VALENTINE      CLEAR     34  27  75 NW14      30.00R WCI  25
AINSWORTH      CLOUDY    35  29  79 NW20G25   29.98R WCI  24
ONEILL         CLOUDY    37  34  90 NW21G28   29.93S WCI  26
BROKEN BOW     PTCLDY    36  29  75 NW24G31   29.96R WCI  24
IMPERIAL       CLEAR     33  23  66 NW13      30.07S WCI  24
NORTH PLATTE   CLEAR     28  24  85 W9        30.03R WCI  19
MCCOOK         CLEAR     37  25  61 NW16      30.04R WCI  28

...EASTERN NEBRASKA...

CITY           SKY/WX    TMP DP  RH WIND       PRES   REMARKS
NORFOLK        CLOUDY    33  31  92 N18G26    29.91R WCI  22
SO SIOUX CITY  CLOUDY    36  32  85 N17       29.88R WCI  26
TEKAMAH        LGT RAIN  36  33  89 N23G31    29.86R WCI  24
COLUMBUS       CLOUDY    34  27  75 N18G28    29.91R WCI  23
ALBION         CLOUDY    36  32  87 N16G28    29.92R WCI  26
OMAHA EPPLEY   CLOUDY    36  33  89 N24G33    29.81R WCI  24
OFFUTT AFB     LGT RAIN  36  33  87 N21G28    29.81R WCI  25
MILLARD        CLOUDY    37  32  85 N16G23    29.82R WCI  27
LINCOLN        CLOUDY    36  30  79 N22       29.87R WCI  25
NEBRASKA CITY  CLOUDY    35  31  83 N26G32    29.77R WCI  23
BEATRICE       CLOUDY    36  32  86 N23G33    29.84R WCI  24
FALLS CITY     CLOUDY    36  31  82 NW20G32   29.76R WCI  25

...NORTHERN KANSAS...

CITY           SKY/WX    TMP DP  RH WIND       PRES   REMARKS
GOODLAND       CLEAR     37  25  61 NW15      30.08R WCI  28
HILL CITY      CLEAR     38  26  62 NW18G26   30.03R WCI  28
NORTON         SUNNY     36  25  64 W16G22    30.01S WCI  26
PHILLIPSBURG   CLEAR     37  30  75 NW15G22   29.99R WCI  28
SMITH CENTER   CLEAR     37  27  65 NW20G29   29.96R WCI  27
BELOIT         CLOUDY    45  30  57 NW21G30   29.93R
HAYS           CLEAR     39  23  52 NW22G29   30.01R WCI  29
RUSSELL        PTCLDY    38  29  70 NW24      29.97R WCI  27
CONCORDIA      CLOUDY    42  34  73 NW17G31   29.89R
SALINA         CLOUDY    46  32  58 NW32G41   29.90R
TOPEKA         CLOUDY    39  31  72 NW25G33   29.79R WCI  28



USA.gov is the U.S. government's official web portal to all federal, state and local government web resources and services.